This is the latest recevied weather packets stored in our database for station/object KE0TNI-13. If no packets are shown the sender has not sent any weather packets the latest 1 day(s).
| Time | Temp. | Humidity | Pressure | Rain* | Wind** | Luminosity | Snow |
|---|---|---|---|---|---|---|---|
| 1778041373 | -4.44° C | 96% | 1015.2 hPa | 0 mm | 0 m/s | 0 W/m² | - |
| 1778041071 | -4.44° C | 96% | 1015.2 hPa | 0 mm | 0.45 m/s, 85° | 0 W/m² | - |
| 1778040768 | -4.44° C | 96% | 1015 hPa | 0 mm | 0 m/s | 0 W/m² | - |
| 1778040465 | -4.44° C | 96% | 1015.3 hPa | 0 mm | 0.45 m/s, 95° | 0 W/m² | - |
| 1778040162 | -4.44° C | 96% | 1015.3 hPa | 0 mm | 0.45 m/s, 80° | 0 W/m² | - |
| 1778039859 | -4.44° C | 96% | 1015.2 hPa | 0 mm | 0 m/s | 0 W/m² | - |
| 1778039556 | -4.44° C | 96% | 1015 hPa | 0 mm | 0.45 m/s, 107° | 0 W/m² | - |
| 1778039253 | -4.44° C | 96% | 1014.9 hPa | 0 mm | 0.45 m/s, 85° | 0 W/m² | - |
| 1778038950 | -4.44° C | 96% | 1014.5 hPa | 0 mm | 0.45 m/s, 97° | 0 W/m² | - |
| 1778038647 | -4.44° C | 96% | 1014.9 hPa | 0 mm | 0.45 m/s, 84° | 0 W/m² | - |
| 1778038344 | -4.44° C | 96% | 1014.9 hPa | 0 mm | 0 m/s | 0 W/m² | - |
| 1778038041 | -4.44° C | 96% | 1014.7 hPa | 0 mm | 0.45 m/s, 102° | 0 W/m² | - |
| 1778037738 | -4.44° C | 96% | 1015 hPa | 0 mm | 0 m/s | 0 W/m² | - |
| 1778037434 | -4.44° C | 96% | 1015 hPa | 0 mm | 0.45 m/s, 95° | 0 W/m² | - |
| 1778037132 | -4.44° C | 96% | 1014.5 hPa | 0 mm | 0.45 m/s, 72° | 0 W/m² | - |
| 1778036830 | -4.44° C | 96% | 1014.5 hPa | 0 mm | 0.45 m/s, 100° | 0 W/m² | - |
| 1778036527 | -4.44° C | 96% | 1014.7 hPa | 0 mm | 0.45 m/s, 87° | 0 W/m² | - |
| 1778036224 | -4.44° C | 96% | 1014.4 hPa | 0 mm | 0 m/s | 0 W/m² | - |
| 1778035920 | -4.44° C | 96% | 1014.3 hPa | 0 mm | 0.45 m/s, 108° | 0 W/m² | - |
| 1778035617 | -4.44° C | 96% | 1014.5 hPa | 0 mm | 0.45 m/s, 104° | 0 W/m² | - |
| 1778035314 | -4.44° C | 96% | 1014.1 hPa | 0 mm | 0 m/s | 0 W/m² | - |
| 1778035010 | -4.44° C | 96% | 1014.1 hPa | 0 mm | 0 m/s | 0 W/m² | - |
| 1778034707 | -4.44° C | 96% | 1013.7 hPa | 0 mm | 0 m/s | 0 W/m² | - |
| 1778034404 | -4.44° C | 96% | 1014.3 hPa | 0 mm | 0 m/s | 0 W/m² | - |
| 1778034102 | -4.44° C | 96% | 1014.3 hPa | 0 mm | 0 m/s | 0 W/m² | - |
* Rain latest hour (hover to see other rain measurements)
** Current wind speed in m/s (hover to see current wind gust speed)